AIB400 ZUUU-ZBTJ

Flight info

Callsign AIB400
Flight time 2h 29m
Altitude 41100
Route K0909S1250 DCT APEXO DCT IGREL DCT AGULU DCT APIMI DCT NSH DCT OLMEK DCT WJC DCT UKLON DCT BURSI DCT UDIGU DCT NITID DCT AVKES DCT EXORI DCT PARTU DCT ISLEP DCT TONOV DCT GUVRI DCT OMDEK DCT AVBOX AVBOX3H
Aircraft A35K/H-SDE2E3GHIJ3J4J5LM1ORWXYZ/LB1D1

Departure

Time 2026-04-14 10:20
Airport Chengdu Shuangliu International Airport (ZUUU)

Arrival

Time 2026-04-14 12:49
Airport Tianjin Binhai International Airport (ZBTJ)
Time Latitude Longitude Altitude Speed Heading
2026-04-14 09:45 30.57016 103.94843 1653 ft 0 kts 115°
2026-04-14 10:08 30.57023 103.94825 1653 ft 4 kts 115°
2026-04-14 10:09 30.57035 103.94797 1653 ft 4 kts 115°
2026-04-14 10:09 30.57046 103.94770 1653 ft 4 kts 127°
2026-04-14 10:09 30.57066 103.94750 1653 ft 4 kts 158°
2026-04-14 10:09 30.57091 103.94745 1653 ft 4 kts 193°
2026-04-14 10:10 30.57111 103.94753 1653 ft 4 kts 202°
2026-04-14 10:10 30.57132 103.94763 1653 ft 1 kts 202°
2026-04-14 10:13 30.57117 103.94756 1653 ft 9 kts 202°
2026-04-14 10:13 30.57007 103.94705 1653 ft 24 kts 199°
2026-04-14 10:13 30.56866 103.94661 1653 ft 18 kts 208°
2026-04-14 10:14 30.56816 103.94553 1653 ft 13 kts 221°
2026-04-14 10:14 30.56725 103.94499 1653 ft 17 kts 203°
2026-04-14 10:14 30.56605 103.94442 1653 ft 20 kts 202°
2026-04-14 10:14 30.56462 103.94376 1653 ft 24 kts 202°
2026-04-14 10:15 30.56312 103.94305 1653 ft 18 kts 202°
2026-04-14 10:15 30.56283 103.94219 1653 ft 14 kts 282°
2026-04-14 10:15 30.56309 103.94131 1653 ft 1 kts 291°
2026-04-14 10:16 30.56312 103.94123 1653 ft 3 kts 291°
2026-04-14 10:16 30.56328 103.94080 1653 ft 8 kts 293°
2026-04-14 10:16 30.56360 103.94035 1653 ft 9 kts 335°
2026-04-14 10:17 30.56427 103.94044 1668 ft 5 kts 20°
2026-04-14 10:17 30.56428 103.94044 1668 ft 0 kts 20°
2026-04-14 10:19 30.56458 103.94057 1667 ft 28 kts 21°
2026-04-14 10:19 30.56940 103.94280 1653 ft 118 kts 22°
2026-04-14 10:19 30.57937 103.94737 1764 ft 181 kts 22°
2026-04-14 10:20 30.59193 103.95291 2419 ft 203 kts 21°
2026-04-14 10:20 30.60621 103.95863 3026 ft 231 kts 13°
2026-04-14 10:20 30.62217 103.95720 3589 ft 226 kts 341°
2026-04-14 10:20 30.63467 103.94693 3820 ft 222 kts 309°
2026-04-14 10:21 30.64135 103.93107 3805 ft 220 kts 287°
2026-04-14 10:21 30.64481 103.91408 3837 ft 219 kts 272°
2026-04-14 10:21 30.64202 103.89670 3977 ft 221 kts 246°
2026-04-14 10:21 30.63335 103.88255 3925 ft 216 kts 221°
2026-04-14 10:22 30.62060 103.87356 3904 ft 215 kts 200°
2026-04-14 10:22 30.60646 103.86795 3880 ft 215 kts 198°
2026-04-14 10:22 30.59227 103.86236 3836 ft 215 kts 198°
2026-04-14 10:22 30.57811 103.85670 3832 ft 215 kts 198°
2026-04-14 10:23 30.56395 103.85126 3823 ft 214 kts 196°
2026-04-14 10:23 30.54971 103.84632 3821 ft 214 kts 195°
2026-04-14 10:23 30.53530 103.84256 3709 ft 213 kts 183°
2026-04-14 10:23 30.52109 103.84504 3460 ft 204 kts 158°
2026-04-14 10:24 30.50990 103.85392 3338 ft 191 kts 134°
2026-04-14 10:24 30.50304 103.86665 3271 ft 192 kts 112°
2026-04-14 10:24 30.50037 103.88129 3165 ft 180 kts 94°
2026-04-14 10:24 30.50002 103.89527 3084 ft 168 kts 90°
2026-04-14 10:25 30.50025 103.90868 2897 ft 163 kts 90°
2026-04-14 10:25 30.50461 103.91988 2800 ft 155 kts 30°
2026-04-14 10:25 30.51517 103.92224 2615 ft 158 kts
2026-04-14 10:25 30.52623 103.92334 2443 ft 160 kts 12°
2026-04-14 10:26 30.53668 103.92731 2229 ft 157 kts 26°
2026-04-14 10:26 30.54677 103.93247 2035 ft 159 kts 23°
2026-04-14 10:26 30.55713 103.93702 1813 ft 159 kts 23°
2026-04-14 10:26 30.56738 103.94192 1672 ft 158 kts 20°
2026-04-14 10:27 30.57837 103.94677 1884 ft 197 kts 21°
2026-04-14 10:27 30.59142 103.95266 2884 ft 205 kts 25°
2026-04-14 10:27 30.60484 103.95996 4020 ft 222 kts 31°
2026-04-14 10:27 30.61954 103.96823 4722 ft 250 kts 27°
2026-04-14 10:28 30.63600 103.97661 4880 ft 266 kts 25°
2026-04-14 10:28 30.65332 103.98495 4897 ft 272 kts 25°
2026-04-14 10:28 30.67059 103.99388 4895 ft 272 kts 31°
2026-04-14 10:28 30.68546 104.00717 4895 ft 270 kts 47°
2026-04-14 10:29 30.69678 104.02450 4910 ft 269 kts 59°
2026-04-14 10:29 30.70629 104.04307 5179 ft 273 kts 62°
2026-04-14 10:29 30.71569 104.06228 6044 ft 272 kts 58°
2026-04-14 10:29 30.72496 104.08138 6990 ft 272 kts 64°
2026-04-14 10:30 30.73290 104.10145 7812 ft 275 kts 65°
2026-04-14 10:30 30.74225 104.12092 8625 ft 278 kts 54°
2026-04-14 10:30 30.75594 104.13688 9466 ft 281 kts 35°
2026-04-14 10:30 30.77339 104.14718 10301 ft 285 kts 22°
2026-04-14 10:31 30.79242 104.15589 10693 ft 304 kts 21°
2026-04-14 10:31 30.81252 104.16501 10992 ft 324 kts 22°
2026-04-14 10:31 30.83398 104.17500 11307 ft 341 kts 22°
2026-04-14 10:31 30.85633 104.18560 11749 ft 352 kts 22°
2026-04-14 10:32 30.87915 104.19652 12337 ft 358 kts 22°
2026-04-14 10:32 30.90202 104.20867 12888 ft 365 kts 28°
2026-04-14 10:32 30.92327 104.22506 13518 ft 369 kts 39°
2026-04-14 10:32 30.94156 104.24625 14061 ft 375 kts 50°
2026-04-14 10:33 30.95582 104.27138 14531 ft 381 kts 62°
2026-04-14 10:33 30.96565 104.30028 15005 ft 388 kts 74°
2026-04-14 10:33 30.97054 104.33139 15475 ft 394 kts 83°
2026-04-14 10:33 30.97327 104.36346 15935 ft 401 kts 84°
2026-04-14 10:34 30.97837 104.42912 16863 ft 413 kts 84°
2026-04-14 10:34 30.98106 104.46262 17345 ft 418 kts 84°
2026-04-14 10:34 30.98380 104.49640 17936 ft 420 kts 84°
2026-04-14 10:35 30.98655 104.53006 18368 ft 426 kts 84°
2026-04-14 10:35 30.98938 104.56461 18769 ft 430 kts 84°
2026-04-14 10:35 30.99223 104.59946 19229 ft 434 kts 84°
2026-04-14 10:35 30.99509 104.63459 19650 ft 437 kts 84°
2026-04-14 10:36 30.99798 104.67007 20089 ft 441 kts 84°
2026-04-14 10:36 31.00089 104.70580 20538 ft 445 kts 84°
2026-04-14 10:36 31.00381 104.74188 20971 ft 449 kts 84°
2026-04-14 10:36 31.00673 104.77821 21400 ft 452 kts 83°
2026-04-14 10:37 31.00968 104.81488 21823 ft 456 kts 83°
2026-04-14 10:37 31.01260 104.85132 22248 ft 460 kts 83°
2026-04-14 10:37 31.01557 104.88857 22669 ft 463 kts 83°
2026-04-14 10:37 31.01887 104.92604 23067 ft 467 kts 81°
2026-04-14 10:38 31.02573 104.96314 23390 ft 470 kts 70°
2026-04-14 10:38 31.03836 104.99816 23719 ft 469 kts 58°
2026-04-14 10:38 31.05511 105.03079 24095 ft 469 kts 53°
2026-04-14 10:38 31.07277 105.06292 24440 ft 473 kts 53°
2026-04-14 10:39 31.09062 105.09526 24825 ft 475 kts 53°
2026-04-14 10:39 31.10829 105.12742 25192 ft 479 kts 53°
2026-04-14 10:39 31.12631 105.16032 25566 ft 482 kts 53°
2026-04-14 10:39 31.14439 105.19345 25955 ft 486 kts 53°
2026-04-14 10:40 31.16260 105.22682 26410 ft 489 kts 53°
2026-04-14 10:40 31.18084 105.26033 26950 ft 489 kts 53°
2026-04-14 10:40 31.19914 105.29396 27401 ft 493 kts 53°
2026-04-14 10:40 31.21759 105.32797 27813 ft 497 kts 53°
2026-04-14 10:41 31.23615 105.36219 28296 ft 501 kts 53°
2026-04-14 10:41 31.25485 105.39607 28756 ft 505 kts 52°
2026-04-14 10:41 31.27442 105.43032 29231 ft 508 kts 51°
2026-04-14 10:41 31.29446 105.46473 29738 ft 512 kts 50°
2026-04-14 10:42 31.31462 105.49929 30188 ft 517 kts 50°
2026-04-14 10:42 31.33489 105.53424 30652 ft 522 kts 51°
2026-04-14 10:42 31.35523 105.56960 31095 ft 526 kts 51°
2026-04-14 10:42 31.37537 105.60485 31523 ft 530 kts 51°
2026-04-14 10:43 31.39587 105.64080 32039 ft 532 kts 51°
2026-04-14 10:43 31.41642 105.67702 32448 ft 536 kts 52°
2026-04-14 10:43 31.43718 105.71358 32817 ft 541 kts 52°
2026-04-14 10:43 31.45811 105.75042 33184 ft 546 kts 52°
2026-04-14 10:44 31.47920 105.78754 33590 ft 549 kts 52°
2026-04-14 10:44 31.50044 105.82490 34026 ft 551 kts 52°
2026-04-14 10:44 31.52139 105.86175 34528 ft 550 kts 52°
2026-04-14 10:44 31.54253 105.89905 34963 ft 552 kts 52°
2026-04-14 10:45 31.56383 105.93669 35315 ft 555 kts 52°
2026-04-14 10:45 31.58513 105.97439 35753 ft 556 kts 52°
2026-04-14 10:45 31.60649 106.01227 36230 ft 557 kts 52°
2026-04-14 10:45 31.62785 106.05017 36721 ft 557 kts 52°
2026-04-14 10:46 31.64923 106.08814 37142 ft 559 kts 52°
2026-04-14 10:46 31.67068 106.12623 37541 ft 561 kts 52°
2026-04-14 10:46 31.69192 106.16399 37966 ft 563 kts 52°
2026-04-14 10:46 31.71352 106.20241 38385 ft 564 kts 52°
2026-04-14 10:47 31.73509 106.24092 38757 ft 566 kts 52°
2026-04-14 10:47 31.75671 106.27964 39104 ft 567 kts 52°
2026-04-14 10:47 31.77837 106.31840 39386 ft 568 kts 52°
2026-04-14 10:47 31.80018 106.35724 39654 ft 570 kts 51°
2026-04-14 10:48 31.82206 106.39616 39944 ft 572 kts 52°
2026-04-14 10:48 31.84385 106.43511 40288 ft 569 kts 51°
2026-04-14 10:48 31.86524 106.47352 40629 ft 569 kts 52°
2026-04-14 10:48 31.88697 106.51254 40877 ft 571 kts 51°
2026-04-14 10:49 31.90876 106.55166 41008 ft 572 kts 51°
2026-04-14 10:49 31.95230 106.62997 41027 ft 572 kts 52°
2026-04-14 10:50 31.99583 106.70842 41001 ft 572 kts 53°
2026-04-14 10:50 32.03933 106.78702 41061 ft 573 kts 52°
2026-04-14 10:51 32.08246 106.86512 41037 ft 571 kts 52°
2026-04-14 10:51 32.12572 106.94360 41035 ft 571 kts 52°
2026-04-14 10:52 32.16895 107.02209 41036 ft 570 kts 52°
2026-04-14 10:52 32.21215 107.10074 41026 ft 572 kts 52°
2026-04-14 10:53 32.25436 107.17979 41058 ft 576 kts 58°
2026-04-14 10:53 32.28568 107.26707 41039 ft 577 kts 66°
2026-04-14 10:54 32.31331 107.35619 41035 ft 578 kts 68°
2026-04-14 10:54 32.34042 107.44570 41036 ft 578 kts 68°
2026-04-14 10:55 32.36749 107.53457 41043 ft 578 kts 68°
2026-04-14 10:55 32.39488 107.62404 41050 ft 579 kts 68°
2026-04-14 10:56 32.42218 107.71372 41081 ft 580 kts 68°
2026-04-14 10:56 32.44933 107.80332 41058 ft 578 kts 68°
2026-04-14 10:57 32.47620 107.89228 41056 ft 578 kts 69°
2026-04-14 10:57 32.51292 107.97579 41061 ft 567 kts 47°
2026-04-14 10:57 32.53915 108.00990 41061 ft 555 kts 34°
2026-04-14 10:58 32.56959 108.03694 41059 ft 540 kts 22°
2026-04-14 10:58 32.60287 108.05620 41065 ft 526 kts 11°
2026-04-14 10:58 32.63728 108.07032 41072 ft 522 kts
2026-04-14 10:59 32.70610 108.09484 41053 ft 519 kts
2026-04-14 10:59 32.77563 108.11853 41061 ft 520 kts
2026-04-14 11:00 32.84520 108.14268 41056 ft 522 kts
2026-04-14 11:00 32.91496 108.16737 41063 ft 523 kts
2026-04-14 11:01 32.98451 108.19219 41060 ft 521 kts
2026-04-14 11:01 33.05353 108.21685 41065 ft 521 kts
2026-04-14 11:02 33.12293 108.24163 41094 ft 520 kts
2026-04-14 11:02 33.19216 108.26637 41061 ft 519 kts
2026-04-14 11:03 33.26133 108.29117 41074 ft 519 kts
2026-04-14 11:03 33.32945 108.31940 41077 ft 529 kts 16°
2026-04-14 11:04 33.39614 108.35713 41063 ft 530 kts 18°
2026-04-14 11:04 33.46203 108.39665 41080 ft 529 kts 19°
2026-04-14 11:05 33.52794 108.43609 41097 ft 530 kts 18°
2026-04-14 11:05 33.59340 108.47512 41123 ft 528 kts 19°
2026-04-14 11:06 33.65900 108.51427 41076 ft 526 kts 19°
2026-04-14 11:06 33.72459 108.55348 41069 ft 527 kts 19°
2026-04-14 11:07 33.79017 108.59287 41073 ft 527 kts 19°
2026-04-14 11:07 33.85566 108.63224 41055 ft 526 kts 19°
2026-04-14 11:08 33.92069 108.67125 41035 ft 525 kts 19°
2026-04-14 11:08 33.98599 108.71065 41049 ft 525 kts 19°
2026-04-14 11:09 34.05133 108.75013 41056 ft 525 kts 19°
2026-04-14 11:09 34.10563 108.78294 41010 ft 525 kts 19°
2026-04-14 11:10 34.21492 108.84578 41012 ft 515 kts 10°
2026-04-14 11:10 34.28371 108.86369 41028 ft 503 kts
2026-04-14 11:11 34.35289 108.87552 41010 ft 502 kts 359°
2026-04-14 11:11 34.41049 108.88456 41010 ft 502 kts 359°
2026-04-14 11:12 34.49100 108.89737 41008 ft 502 kts 359°
2026-04-14 11:12 34.56026 108.90867 41017 ft 502 kts 359°
2026-04-14 11:13 34.61763 108.92255 41018 ft 510 kts
2026-04-14 11:13 34.68615 108.94605 41025 ft 512 kts
2026-04-14 11:14 34.76558 108.97494 41044 ft 512 kts
2026-04-14 11:14 34.82268 108.99583 41026 ft 511 kts
2026-04-14 11:15 34.89015 109.02178 41027 ft 512 kts 11°
2026-04-14 11:15 34.95785 109.04889 41029 ft 512 kts 11°
2026-04-14 11:16 35.02562 109.07597 41034 ft 512 kts 10°
2026-04-14 11:16 35.09337 109.10286 41034 ft 512 kts 10°
2026-04-14 11:17 35.16069 109.12954 41043 ft 512 kts 10°
2026-04-14 11:17 35.22853 109.15646 41037 ft 513 kts 11°
2026-04-14 11:18 35.29634 109.18345 41039 ft 512 kts 11°
2026-04-14 11:18 35.36370 109.21030 41037 ft 512 kts 11°
2026-04-14 11:19 35.43145 109.23735 41063 ft 512 kts 11°
2026-04-14 11:19 35.49917 109.26443 41033 ft 511 kts 11°
2026-04-14 11:20 35.56674 109.29151 41030 ft 511 kts 11°
2026-04-14 11:20 35.63429 109.31863 41026 ft 511 kts 11°
2026-04-14 11:21 35.70136 109.34559 41024 ft 510 kts 11°
2026-04-14 11:21 35.76633 109.38323 41025 ft 527 kts 28°
2026-04-14 11:22 35.79506 109.41177 41027 ft 536 kts 39°
2026-04-14 11:22 35.81988 109.44633 41028 ft 541 kts 47°
2026-04-14 11:22 35.86519 109.52094 41044 ft 545 kts 50°
2026-04-14 11:23 35.90879 109.59681 41035 ft 546 kts 51°
2026-04-14 11:23 35.95275 109.67305 41037 ft 545 kts 50°
2026-04-14 11:24 35.99699 109.74905 41035 ft 545 kts 50°
2026-04-14 11:24 36.04136 109.82507 41070 ft 546 kts 50°
2026-04-14 11:25 36.08573 109.90126 41032 ft 546 kts 50°
2026-04-14 11:25 36.12973 109.97704 41022 ft 545 kts 50°
2026-04-14 11:26 36.17393 110.05330 41025 ft 545 kts 50°
2026-04-14 11:26 36.21805 110.12972 41048 ft 546 kts 50°
2026-04-14 11:27 36.26185 110.20581 41006 ft 546 kts 51°
2026-04-14 11:27 36.30590 110.28250 41005 ft 546 kts 51°
2026-04-14 11:28 36.34989 110.35929 41006 ft 546 kts 51°
2026-04-14 11:28 36.39385 110.43617 41005 ft 546 kts 51°
2026-04-14 11:29 36.43746 110.51263 41000 ft 546 kts 51°
2026-04-14 11:29 36.48132 110.58970 41000 ft 546 kts 51°
2026-04-14 11:30 36.52516 110.66689 41005 ft 547 kts 51°
2026-04-14 11:30 36.56895 110.74417 41012 ft 547 kts 51°
2026-04-14 11:31 36.61247 110.82115 41003 ft 547 kts 51°
2026-04-14 11:31 36.65622 110.89874 41016 ft 547 kts 51°
2026-04-14 11:32 36.69664 110.97057 41012 ft 547 kts 51°
2026-04-14 11:32 36.74477 111.04330 41017 ft 543 kts 44°
2026-04-14 11:33 36.79468 111.11304 41019 ft 542 kts 43°
2026-04-14 11:34 36.87050 111.21788 41024 ft 543 kts 43°
2026-04-14 11:34 36.92097 111.28802 41019 ft 543 kts 43°
2026-04-14 11:35 36.97135 111.35835 41024 ft 543 kts 43°
2026-04-14 11:35 37.02131 111.42828 41016 ft 543 kts 43°
2026-04-14 11:36 37.07160 111.49879 41019 ft 543 kts 44°
2026-04-14 11:36 37.12183 111.56936 41029 ft 543 kts 44°
2026-04-14 11:37 37.17207 111.64010 41009 ft 543 kts 44°
2026-04-14 11:37 37.22229 111.71096 41019 ft 544 kts 44°
2026-04-14 11:38 37.26766 111.78642 41031 ft 551 kts 57°
2026-04-14 11:38 37.30425 111.87110 41014 ft 552 kts 60°
2026-04-14 11:39 37.33918 111.95715 41008 ft 553 kts 60°
2026-04-14 11:39 37.37400 112.04335 41015 ft 553 kts 60°
2026-04-14 11:40 37.40873 112.12891 41010 ft 553 kts 60°
2026-04-14 11:40 37.44374 112.21511 41007 ft 553 kts 60°
2026-04-14 11:41 37.47870 112.30137 41010 ft 554 kts 60°
2026-04-14 11:41 37.51361 112.38777 41011 ft 554 kts 60°
2026-04-14 11:42 37.54822 112.47368 41003 ft 554 kts 60°
2026-04-14 11:42 37.58308 112.56033 41054 ft 554 kts 60°
2026-04-14 11:43 37.61790 112.64716 41010 ft 555 kts 60°
2026-04-14 11:43 37.65266 112.73405 41013 ft 555 kts 60°
2026-04-14 11:44 37.68720 112.82038 41007 ft 555 kts 61°
2026-04-14 11:44 37.72194 112.90747 41020 ft 555 kts 61°
2026-04-14 11:45 37.75659 112.99465 41029 ft 555 kts 61°
2026-04-14 11:45 37.79116 113.08194 41036 ft 555 kts 61°
2026-04-14 11:46 37.82541 113.16868 41038 ft 555 kts 61°
2026-04-14 11:46 37.85987 113.25615 41042 ft 555 kts 61°
2026-04-14 11:47 37.89425 113.34365 41040 ft 555 kts 61°
2026-04-14 11:47 37.92858 113.43113 41038 ft 555 kts 61°
2026-04-14 11:48 37.96289 113.51888 41046 ft 556 kts 62°
2026-04-14 11:48 37.99680 113.60629 41045 ft 557 kts 62°
2026-04-14 11:49 38.03081 113.69442 41046 ft 556 kts 62°
2026-04-14 11:49 38.06480 113.78261 41031 ft 556 kts 62°
2026-04-14 11:50 38.09879 113.87094 41042 ft 557 kts 62°
2026-04-14 11:50 38.13249 113.95877 41039 ft 557 kts 62°
2026-04-14 11:51 38.18323 114.09148 41030 ft 557 kts 62°
2026-04-14 11:51 38.21703 114.18011 41028 ft 558 kts 62°
2026-04-14 11:52 38.25077 114.26828 41030 ft 558 kts 62°
2026-04-14 11:52 38.28466 114.35708 41030 ft 558 kts 62°
2026-04-14 11:53 38.31845 114.44598 41035 ft 558 kts 62°
2026-04-14 11:53 38.35216 114.53496 41036 ft 558 kts 62°
2026-04-14 11:54 38.38582 114.62410 41037 ft 558 kts 62°
2026-04-14 11:54 38.41918 114.71268 41038 ft 558 kts 62°
2026-04-14 11:55 38.45268 114.80202 41037 ft 558 kts 62°
2026-04-14 11:55 38.48604 114.89139 41038 ft 558 kts 62°
2026-04-14 11:56 38.51938 114.98088 41041 ft 558 kts 62°
2026-04-14 11:56 38.55244 115.06982 41038 ft 559 kts 62°
2026-04-14 11:57 38.58370 115.16069 41046 ft 560 kts 71°
2026-04-14 11:57 38.59254 115.20922 41045 ft 561 kts 82°
2026-04-14 11:57 38.59445 115.25883 41044 ft 558 kts 95°
2026-04-14 11:58 38.58910 115.30768 41050 ft 554 kts 107°
2026-04-14 11:58 38.57964 115.35531 41034 ft 553 kts 109°
2026-04-14 11:58 38.55786 115.44889 41041 ft 553 kts 111°
2026-04-14 11:59 38.53510 115.54281 41042 ft 554 kts 111°
2026-04-14 11:59 38.51306 115.63708 41028 ft 556 kts 106°
2026-04-14 12:00 38.50837 115.68593 40671 ft 555 kts 92°
2026-04-14 12:00 38.51181 115.73452 39639 ft 548 kts 77°
2026-04-14 12:00 38.52357 115.78070 38183 ft 548 kts 61°
2026-04-14 12:00 38.54204 115.82265 37351 ft 536 kts 55°
2026-04-14 12:01 38.56059 115.86317 36724 ft 535 kts 57°
2026-04-14 12:01 38.57875 115.90479 36050 ft 536 kts 57°
2026-04-14 12:01 38.59644 115.94682 35276 ft 539 kts 58°
2026-04-14 12:01 38.61398 115.98941 34494 ft 543 kts 58°
2026-04-14 12:02 38.63148 116.03244 33536 ft 549 kts 58°
2026-04-14 12:02 38.64706 116.07736 32530 ft 558 kts 69°
2026-04-14 12:02 38.65500 116.12613 31586 ft 564 kts 85°
2026-04-14 12:02 38.65526 116.17634 30609 ft 567 kts 94°
2026-04-14 12:03 38.65324 116.22683 29495 ft 571 kts 94°
2026-04-14 12:03 38.65130 116.27686 28568 ft 569 kts 94°
2026-04-14 12:03 38.64961 116.32711 27796 ft 563 kts 93°
2026-04-14 12:03 38.65035 116.37681 27009 ft 556 kts 82°
2026-04-14 12:04 38.65842 116.42476 26267 ft 547 kts 72°
2026-04-14 12:04 38.66926 116.47100 25626 ft 538 kts 70°
2026-04-14 12:04 38.68015 116.51635 25001 ft 529 kts 70°
2026-04-14 12:04 38.69080 116.56102 24365 ft 520 kts 71°
2026-04-14 12:05 38.70111 116.60459 23571 ft 499 kts 71°
2026-04-14 12:05 38.71090 116.64635 22156 ft 486 kts 71°
2026-04-14 12:05 38.72032 116.68702 21480 ft 478 kts 71°
2026-04-14 12:05 38.72965 116.72748 20791 ft 470 kts 71°
2026-04-14 12:06 38.73880 116.76725 20087 ft 463 kts 71°
2026-04-14 12:06 38.74783 116.80654 19380 ft 457 kts 71°
2026-04-14 12:06 38.75673 116.84532 18649 ft 451 kts 71°
2026-04-14 12:06 38.76550 116.88363 17888 ft 446 kts 71°
2026-04-14 12:07 38.77417 116.92153 17107 ft 439 kts 71°
2026-04-14 12:07 38.78267 116.95875 16377 ft 432 kts 71°
2026-04-14 12:07 38.78907 116.99559 15638 ft 428 kts 82°
2026-04-14 12:07 38.78757 117.03344 14900 ft 426 kts 101°
2026-04-14 12:08 38.77818 117.06919 14149 ft 421 kts 112°
2026-04-14 12:08 38.76678 117.10348 13353 ft 416 kts 112°
2026-04-14 12:08 38.75546 117.13725 12578 ft 409 kts 112°
2026-04-14 12:08 38.74449 117.17053 11829 ft 402 kts 111°
2026-04-14 12:09 38.73742 117.20465 11230 ft 391 kts 94°
2026-04-14 12:09 38.73946 117.23805 11099 ft 365 kts 73°
2026-04-14 12:09 38.74824 117.26742 10964 ft 343 kts 62°
2026-04-14 12:09 38.75818 117.29379 10847 ft 325 kts 61°
2026-04-14 12:10 38.76795 117.31911 10713 ft 309 kts 61°
2026-04-14 12:10 38.77720 117.34319 10580 ft 294 kts 61°
2026-04-14 12:10 38.78608 117.36615 10453 ft 282 kts 59°
2026-04-14 12:10 38.79725 117.38630 10293 ft 275 kts 41°
2026-04-14 12:11 38.81291 117.39933 10011 ft 266 kts 17°
2026-04-14 12:11 38.83112 117.40298 9767 ft 272 kts 354°
2026-04-14 12:11 38.84943 117.39694 9612 ft 271 kts 332°
2026-04-14 12:11 38.86573 117.38520 9144 ft 269 kts 329°
2026-04-14 12:12 38.88217 117.37407 8797 ft 272 kts 331°
2026-04-14 12:12 38.89898 117.36307 8507 ft 271 kts 331°
2026-04-14 12:12 38.91583 117.35223 8218 ft 270 kts 332°
2026-04-14 12:12 38.93264 117.34157 7945 ft 269 kts 332°
2026-04-14 12:13 38.94939 117.33103 7645 ft 268 kts 332°
2026-04-14 12:13 38.96615 117.32053 7361 ft 267 kts 332°
2026-04-14 12:13 38.98280 117.31012 7071 ft 266 kts 332°
2026-04-14 12:13 38.99943 117.29974 6780 ft 265 kts 332°
2026-04-14 12:14 39.01576 117.28940 6479 ft 264 kts 332°
2026-04-14 12:14 39.03220 117.27891 6204 ft 264 kts 332°
2026-04-14 12:14 39.04861 117.26845 5912 ft 264 kts 332°
2026-04-14 12:14 39.06504 117.25799 5618 ft 264 kts 331°
2026-04-14 12:15 39.08146 117.24752 5323 ft 263 kts 331°
2026-04-14 12:15 39.09784 117.23708 5029 ft 262 kts 331°
2026-04-14 12:15 39.11413 117.22670 4734 ft 261 kts 330°
2026-04-14 12:15 39.13038 117.21638 4471 ft 258 kts 331°
2026-04-14 12:16 39.14601 117.20640 4326 ft 244 kts 330°
2026-04-14 12:16 39.16079 117.19694 4186 ft 231 kts 330°
2026-04-14 12:16 39.17469 117.18803 4051 ft 221 kts 330°
2026-04-14 12:16 39.18818 117.17937 3896 ft 215 kts 330°
2026-04-14 12:17 39.20157 117.17080 3795 ft 213 kts 331°
2026-04-14 12:17 39.21580 117.16500 3652 ft 219 kts 351°
2026-04-14 12:17 39.23077 117.16882 3435 ft 226 kts 27°
2026-04-14 12:17 39.24173 117.18312 3205 ft 227 kts 58°
2026-04-14 12:18 39.24894 117.20112 3047 ft 221 kts 65°
2026-04-14 12:18 39.25516 117.21846 2961 ft 205 kts 65°
2026-04-14 12:18 39.26075 117.23463 2900 ft 189 kts 69°
2026-04-14 12:18 39.26214 117.25042 2774 ft 175 kts 101°
2026-04-14 12:19 39.25631 117.26349 2542 ft 168 kts 141°
2026-04-14 12:19 39.24649 117.27135 2358 ft 165 kts 156°
2026-04-14 12:19 39.23610 117.27758 2165 ft 166 kts 159°
2026-04-14 12:19 39.22555 117.28336 1919 ft 164 kts 158°
2026-04-14 12:20 39.21528 117.28950 1706 ft 162 kts 153°
2026-04-14 12:20 39.20517 117.29584 1477 ft 162 kts 153°
2026-04-14 12:20 39.19524 117.30236 1289 ft 161 kts 152°
2026-04-14 12:20 39.18533 117.30852 1059 ft 160 kts 154°
2026-04-14 12:21 39.17542 117.31463 846 ft 158 kts 153°
2026-04-14 12:21 39.16560 117.32078 647 ft 158 kts 153°
2026-04-14 12:21 39.15573 117.32690 415 ft 158 kts 153°
2026-04-14 12:21 39.14578 117.33301 227 ft 159 kts 154°
2026-04-14 12:22 39.13578 117.33919 202 ft 163 kts 154°
2026-04-14 12:22 39.12503 117.34575 216 ft 176 kts 154°
2026-04-14 12:22 39.11394 117.35264 224 ft 177 kts 154°
2026-04-14 12:22 39.10273 117.35921 686 ft 181 kts 160°
2026-04-14 12:23 39.09025 117.35906 925 ft 181 kts 195°
2026-04-14 12:23 39.08019 117.34959 1021 ft 189 kts 231°
2026-04-14 12:23 39.07593 117.33369 1320 ft 193 kts 264°
2026-04-14 12:23 39.07858 117.31702 1314 ft 190 kts 295°
2026-04-14 12:24 39.08722 117.30431 1278 ft 192 kts 326°
2026-04-14 12:24 39.09901 117.29638 1220 ft 190 kts 334°
2026-04-14 12:24 39.11038 117.28892 1166 ft 176 kts 334°
2026-04-14 12:24 39.12126 117.28226 1206 ft 173 kts 336°
2026-04-14 12:25 39.13185 117.27552 1296 ft 172 kts 334°
2026-04-14 12:25 39.14250 117.26870 1318 ft 168 kts 335°
2026-04-14 12:25 39.15336 117.26539 1215 ft 158 kts
2026-04-14 12:25 39.16371 117.26826 1072 ft 148 kts 28°
2026-04-14 12:26 39.17152 117.27628 947 ft 141 kts 46°
2026-04-14 12:26 39.17768 117.28543 939 ft 132 kts 64°
2026-04-14 12:26 39.17873 117.29695 911 ft 132 kts 105°
2026-04-14 12:26 39.17451 117.30737 836 ft 132 kts 128°
2026-04-14 12:27 39.16798 117.31567 689 ft 130 kts 138°
2026-04-14 12:27 39.16083 117.32268 542 ft 131 kts 144°
2026-04-14 12:27 39.15294 117.32851 385 ft 132 kts 152°
2026-04-14 12:27 39.14465 117.33367 217 ft 133 kts 154°
2026-04-14 12:28 39.13632 117.33880 40 ft 133 kts 155°
2026-04-14 12:28 39.12837 117.34369 27 ft 118 kts 154°
2026-04-14 12:28 39.12067 117.34843 129 ft 150 kts 155°
2026-04-14 12:28 39.10971 117.35487 422 ft 193 kts 154°
2026-04-14 12:29 39.09559 117.36122 778 ft 243 kts 171°
2026-04-14 12:29 39.07798 117.35816 1397 ft 260 kts 198°
2026-04-14 12:29 39.06306 117.34634 1291 ft 245 kts 223°
2026-04-14 12:29 39.05380 117.32925 1308 ft 224 kts 242°
2026-04-14 12:30 39.04931 117.31140 1328 ft 204 kts 267°
2026-04-14 12:30 39.05213 117.29691 1354 ft 187 kts 302°
2026-04-14 12:30 39.06207 117.28721 1346 ft 184 kts 342°
2026-04-14 12:30 39.07362 117.27992 1348 ft 184 kts 333°
2026-04-14 12:31 39.08509 117.27253 1359 ft 185 kts 333°
2026-04-14 12:31 39.09657 117.26499 1380 ft 186 kts 334°
2026-04-14 12:31 39.10803 117.25752 1361 ft 185 kts 334°
2026-04-14 12:31 39.11950 117.25012 1326 ft 184 kts 334°
2026-04-14 12:32 39.13097 117.24282 1325 ft 183 kts 335°
2026-04-14 12:32 39.14232 117.23574 1351 ft 180 kts 335°
2026-04-14 12:32 39.15407 117.23263 1344 ft 172 kts
2026-04-14 12:32 39.16517 117.23667 1345 ft 162 kts 34°
2026-04-14 12:33 39.17228 117.24708 1291 ft 153 kts 66°
2026-04-14 12:33 39.17695 117.25944 1282 ft 153 kts 65°
2026-04-14 12:33 39.18164 117.27186 1277 ft 155 kts 66°
2026-04-14 12:33 39.18565 117.28431 1250 ft 147 kts 82°
2026-04-14 12:34 39.18392 117.29684 1158 ft 148 kts 118°
2026-04-14 12:34 39.17742 117.30717 941 ft 148 kts 135°
2026-04-14 12:34 39.16971 117.31577 688 ft 151 kts 141°
2026-04-14 12:34 39.16107 117.32299 455 ft 145 kts 150°
2026-04-14 12:35 39.15224 117.32893 269 ft 142 kts 153°
2026-04-14 12:35 39.14338 117.33443 147 ft 141 kts 154°
2026-04-14 12:35 39.13453 117.33990 33 ft 140 kts 154°
2026-04-14 12:35 39.12616 117.34506 37 ft 137 kts 154°
2026-04-14 12:36 39.11581 117.35130 175 ft 168 kts 155°
2026-04-14 12:36 39.10524 117.35752 416 ft 170 kts 154°
2026-04-14 12:36 39.09356 117.35978 725 ft 174 kts 184°
2026-04-14 12:36 39.08187 117.35430 918 ft 187 kts 212°
2026-04-14 12:37 39.07351 117.34156 936 ft 189 kts 241°
2026-04-14 12:37 39.06768 117.32646 961 ft 184 kts 242°
2026-04-14 12:37 39.06386 117.31128 1029 ft 181 kts 265°
2026-04-14 12:37 39.06659 117.29557 1122 ft 182 kts 299°
2026-04-14 12:38 39.08724 117.27668 1205 ft 191 kts 334°
2026-04-14 12:38 39.09956 117.26908 1224 ft 197 kts 335°
2026-04-14 12:38 39.11129 117.26201 1277 ft 182 kts 335°
2026-04-14 12:39 39.12257 117.25520 1366 ft 176 kts 335°
2026-04-14 12:39 39.13366 117.24848 1359 ft 176 kts 335°
2026-04-14 12:39 39.14464 117.24187 1345 ft 173 kts 335°
2026-04-14 12:39 39.15625 117.23912 1315 ft 168 kts
2026-04-14 12:40 39.16719 117.24262 1302 ft 159 kts 30°
2026-04-14 12:40 39.17459 117.25286 1286 ft 159 kts 65°
2026-04-14 12:40 39.17920 117.26569 1284 ft 157 kts 68°
2026-04-14 12:40 39.18358 117.27834 1234 ft 151 kts 69°
2026-04-14 12:41 39.18775 117.29050 1176 ft 150 kts 68°
2026-04-14 12:41 39.18848 117.30372 1078 ft 150 kts 103°
2026-04-14 12:41 39.18295 117.31507 832 ft 154 kts 141°
2026-04-14 12:41 39.17336 117.31996 647 ft 142 kts 165°
2026-04-14 12:42 39.16374 117.32310 554 ft 145 kts 163°
2026-04-14 12:42 39.15429 117.32814 397 ft 150 kts 155°
2026-04-14 12:42 39.14480 117.33360 216 ft 146 kts 153°
2026-04-14 12:42 39.13556 117.33929 46 ft 149 kts 154°
2026-04-14 12:43 39.12675 117.34473 36 ft 143 kts 155°
2026-04-14 12:43 39.11614 117.35075 809 ft 165 kts 156°
2026-04-14 12:43 39.10588 117.35233 945 ft 149 kts 190°
2026-04-14 12:43 39.09668 117.34530 970 ft 164 kts 226°
2026-04-14 12:44 39.09187 117.33188 972 ft 171 kts 261°
2026-04-14 12:44 39.09362 117.31664 1086 ft 185 kts 292°
2026-04-14 12:44 39.10177 117.30296 1129 ft 200 kts 322°
2026-04-14 12:45 39.12642 117.28593 1122 ft 194 kts 333°
2026-04-14 12:45 39.13808 117.27804 1152 ft 184 kts 333°
2026-04-14 12:45 39.14934 117.27024 1158 ft 184 kts 333°
2026-04-14 12:45 39.16086 117.26378 1157 ft 179 kts 351°
2026-04-14 12:46 39.17267 117.26503 1182 ft 169 kts 21°
2026-04-14 12:46 39.18175 117.27369 1199 ft 159 kts 56°
2026-04-14 12:46 39.18436 117.28669 1179 ft 148 kts 98°
2026-04-14 12:46 39.18001 117.29828 1041 ft 147 kts 133°
2026-04-14 12:47 39.17239 117.30735 830 ft 151 kts 133°
2026-04-14 12:47 39.16548 117.31694 680 ft 142 kts 133°
2026-04-14 12:47 39.15761 117.32490 474 ft 146 kts 149°
2026-04-14 12:47 39.14905 117.33094 286 ft 141 kts 154°
2026-04-14 12:48 39.14058 117.33621 106 ft 130 kts 155°
2026-04-14 12:48 39.13282 117.34095 29 ft 114 kts 154°
2026-04-14 12:48 39.12690 117.34457 31 ft 81 kts 154°
2026-04-14 12:48 39.12235 117.34739 29 ft 55 kts 155°
2026-04-14 12:49 39.11986 117.34893 27 ft 36 kts 154°
2026-04-14 12:49 39.11819 117.35063 28 ft 30 kts 130°
2026-04-14 12:49 39.11763 117.35254 31 ft 18 kts 43°
2026-04-14 12:49 39.11867 117.35356 29 ft 24 kts 57°
2026-04-14 12:50 39.11948 117.35564 29 ft 28 kts 64°
2026-04-14 12:50 39.12143 117.36091 28 ft 37 kts 63°
2026-04-14 12:50 39.12258 117.36401 29 ft 40 kts 64°
2026-04-14 12:51 39.12367 117.36689 29 ft 35 kts 64°
2026-04-14 12:51 39.12466 117.36959 26 ft 20 kts 63°
2026-04-14 12:51 39.12452 117.37056 29 ft 10 kts 139°
2026-04-14 12:51 39.12366 117.37118 28 ft 17 kts 154°
2026-04-14 12:52 39.12221 117.37205 28 ft 27 kts 155°
2026-04-14 12:52 39.12035 117.37318 28 ft 32 kts 154°
2026-04-14 12:52 39.11824 117.37448 30 ft 36 kts 155°
2026-04-14 12:52 39.11589 117.37592 28 ft 35 kts 154°
2026-04-14 12:53 39.11506 117.37683 26 ft 13 kts 91°
2026-04-14 12:53 39.11543 117.37817 27 ft 19 kts 61°
2026-04-14 12:53 39.11601 117.37993 29 ft 23 kts 78°
2026-04-14 12:53 39.11600 117.38221 27 ft 28 kts 93°
2026-04-14 12:54 39.11588 117.38404 26 ft 15 kts 96°
2026-04-14 12:54 39.11601 117.38541 27 ft 18 kts 69°
2026-04-14 12:54 39.11648 117.38671 29 ft 13 kts 65°
2026-04-14 12:54 39.11663 117.38713 29 ft 0 kts 60°
2026-04-14 12:55 39.11684 117.38730 29 ft 2 kts
2026-04-14 12:55 39.11696 117.38723 29 ft 0 kts 338°